owner,sensor,date,latitude,longitude,vertical_datum,wind_speed,wind_to_direction,wind_speed_of_gust,qcFlag 
DISL,ioos:station:DISL:MBLA:1,2014-12-01T00:00:00Z,30.4367,-88.0117,14.2,5.04,118.3,-9999.0,'1111122,1111122,1111122' 
DISL,ioos:station:DISL:MBLA:1,2014-12-01T00:30:00Z,30.4367,-88.0117,14.2,5.18,116.1,-9999.0,'1111122,1111122,1111122' 
DISL,ioos:station:DISL:MBLA:1,2014-12-01T01:00:00Z,30.4367,-88.0117,14.2,5.31,104.7,-9999.0,'1111122,1111122,1111122' 
DISL,ioos:station:DISL:MBLA:1,2014-12-01T01:30:00Z,30.4367,-88.0117,14.2,4.55,97.0,-9999.0,'1111122,1111122,1111122' 
DISL,ioos:station:DISL:MBLA:1,2014-12-01T02:00:00Z,30.4367,-88.0117,14.2,4.27,99.1,-9999.0,'1111122,1111122,1111122' 
DISL,ioos:station:DISL:MBLA:1,2014-12-01T02:30:00Z,30.4367,-88.0117,14.2,4.51,102.3,-9999.0,'1111122,1111122,1111122' 
DISL,ioos:station:DISL:MBLA:1,2014-12-01T03:00:00Z,30.4367,-88.0117,14.2,5.29,102.5,-9999.0,'1111122,1111122,1111122' 
DISL,ioos:station:DISL:MBLA:1,2014-12-01T03:30:00Z,30.4367,-88.0117,14.2,5.31,103.0,-9999.0,'1111122,1111122,1111122' 
DISL,ioos:station:DISL:MBLA:1,2014-12-01T04:00:00Z,30.4367,-88.0117,14.2,5.38,104.7,-9999.0,'1111122,1111122,1111122' 
DISL,ioos:station:DISL:MBLA:1,2014-12-01T04:30:00Z,30.4367,-88.0117,14.2,5.45,105.6,-9999.0,'1111122,1111122,1111122' 
DISL,ioos:station:DISL:MBLA:1,2014-12-01T05:00:00Z,30.4367,-88.0117,14.2,4.82,104.6,-9999.0,'1111122,1111122,1111122' 
DISL,ioos:station:DISL:MBLA:1,2014-12-01T05:30:00Z,30.4367,-88.0117,14.2,4.83,101.4,-9999.0,'1111122,1111122,1111122' 
DISL,ioos:station:DISL:MBLA:1,2014-12-01T06:00:00Z,30.4367,-88.0117,14.2,4.82,100.1,-9999.0,'1111122,1111122,1111122' 
DISL,ioos:station:DISL:MBLA:1,2014-12-01T06:30:00Z,30.4367,-88.0117,14.2,5.02,98.1,-9999.0,'1111122,1111122,1111122' 
DISL,ioos:station:DISL:MBLA:1,2014-12-01T07:00:00Z,30.4367,-88.0117,14.2,5.24,100.1,-9999.0,'1111122,1111122,1111122' 
DISL,ioos:station:DISL:MBLA:1,2014-12-01T07:30:00Z,30.4367,-88.0117,14.2,4.7,103.0,-9999.0,'1111122,1111122,1111122' 
DISL,ioos:station:DISL:MBLA:1,2014-12-01T08:00:00Z,30.4367,-88.0117,14.2,4.69,96.0,-9999.0,'1111122,1111122,1111122' 
DISL,ioos:station:DISL:MBLA:1,2014-12-01T08:30:00Z,30.4367,-88.0117,14.2,4.33,95.8,-9999.0,'1111122,1111122,1111122' 
DISL,ioos:station:DISL:MBLA:1,2014-12-01T09:00:00Z,30.4367,-88.0117,14.2,4.76,101.8,-9999.0,'1111122,1111122,1111122' 
DISL,ioos:station:DISL:MBLA:1,2014-12-01T09:30:00Z,30.4367,-88.0117,14.2,4.68,102.7,-9999.0,'1111122,1111122,1111122' 
DISL,ioos:station:DISL:MBLA:1,2014-12-01T10:00:00Z,30.4367,-88.0117,14.2,4.8,96.9,-9999.0,'1111122,1111122,1111122' 
DISL,ioos:station:DISL:MBLA:1,2014-12-01T10:30:00Z,30.4367,-88.0117,14.2,5.59,97.7,-9999.0,'1111122,1111122,1111122' 
DISL,ioos:station:DISL:MBLA:1,2014-12-01T11:00:00Z,30.4367,-88.0117,14.2,5.79,99.6,-9999.0,'1111122,1111122,1111122' 
DISL,ioos:station:DISL:MBLA:1,2014-12-01T11:30:00Z,30.4367,-88.0117,14.2,5.67,94.4,-9999.0,'1111122,1111122,1111122' 
DISL,ioos:station:DISL:MBLA:1,2014-12-01T12:00:00Z,30.4367,-88.0117,14.2,4.47,81.7,-9999.0,'1111122,1111122,1111122' 
DISL,ioos:station:DISL:MBLA:1,2014-12-01T12:30:00Z,30.4367,-88.0117,14.2,4.36,75.54,-9999.0,'1111122,1111122,1111122' 
DISL,ioos:station:DISL:MBLA:1,2014-12-01T13:00:00Z,30.4367,-88.0117,14.2,5.03,73.87,-9999.0,'1111122,1111122,1111122' 
DISL,ioos:station:DISL:MBLA:1,2014-12-01T13:30:00Z,30.4367,-88.0117,14.2,3.83,83.8,-9999.0,'1111122,1111122,1111122' 
DISL,ioos:station:DISL:MBLA:1,2014-12-01T14:00:00Z,30.4367,-88.0117,14.2,5.81,97.9,-9999.0,'1111122,1111122,1111122' 
DISL,ioos:station:DISL:MBLA:1,2014-12-01T14:30:00Z,30.4367,-88.0117,14.2,5.34,103.6,-9999.0,'1111122,1111122,1111122' 
DISL,ioos:station:DISL:MBLA:1,2014-12-01T15:00:00Z,30.4367,-88.0117,14.2,4.18,99.6,-9999.0,'1111122,1111122,1111122' 
DISL,ioos:station:DISL:MBLA:1,2014-12-01T15:30:00Z,30.4367,-88.0117,14.2,3.84,93.5,-9999.0,'1111122,1111122,1111122' 
DISL,ioos:station:DISL:MBLA:1,2014-12-01T16:00:00Z,30.4367,-88.0117,14.2,1.1,14.31,-9999.0,'1111122,1111122,1111122' 
DISL,ioos:station:DISL:MBLA:1,2014-12-01T16:30:00Z,30.4367,-88.0117,14.2,1.55,358.6,-9999.0,'1111122,1111122,1111122' 
DISL,ioos:station:DISL:MBLA:1,2014-12-01T17:00:00Z,30.4367,-88.0117,14.2,0.89,82.1,-9999.0,'1111122,1111122,1111122' 
DISL,ioos:station:DISL:MBLA:1,2014-12-01T17:30:00Z,30.4367,-88.0117,14.2,3.64,140.2,-9999.0,'1111122,1111122,1111122' 
DISL,ioos:station:DISL:MBLA:1,2014-12-01T18:00:00Z,30.4367,-88.0117,14.2,5.79,141.3,-9999.0,'1111122,1111122,1111122' 
DISL,ioos:station:DISL:MBLA:1,2014-12-01T18:30:00Z,30.4367,-88.0117,14.2,6.73,142.9,-9999.0,'1111122,1111122,1111122' 
DISL,ioos:station:DISL:MBLA:1,2014-12-01T19:00:00Z,30.4367,-88.0117,14.2,5.37,148.5,-9999.0,'1111122,1111122,1111122' 
DISL,ioos:station:DISL:MBLA:1,2014-12-01T19:30:00Z,30.4367,-88.0117,14.2,5.64,150.5,-9999.0,'1111122,1111122,1111122' 
DISL,ioos:station:DISL:MBLA:1,2014-12-01T20:00:00Z,30.4367,-88.0117,14.2,6.53,156.2,-9999.0,'1111122,1111122,1111122' 
DISL,ioos:station:DISL:MBLA:1,2014-12-01T20:30:00Z,30.4367,-88.0117,14.2,5.85,157.9,-9999.0,'1111122,1111122,1111122' 
DISL,ioos:station:DISL:MBLA:1,2014-12-01T21:00:00Z,30.4367,-88.0117,14.2,4.95,162.8,-9999.0,'1111122,1111122,1111122' 
DISL,ioos:station:DISL:MBLA:1,2014-12-01T21:30:00Z,30.4367,-88.0117,14.2,4.63,160.0,-9999.0,'1111122,1111122,1111122' 
DISL,ioos:station:DISL:MBLA:1,2014-12-01T22:00:00Z,30.4367,-88.0117,14.2,4.87,153.6,-9999.0,'1111122,1111122,1111122' 
DISL,ioos:station:DISL:MBLA:1,2014-12-01T22:30:00Z,30.4367,-88.0117,14.2,6.14,148.7,-9999.0,'1111122,1111122,1111122' 
DISL,ioos:station:DISL:MBLA:1,2014-12-01T23:00:00Z,30.4367,-88.0117,14.2,5.72,146.1,-9999.0,'1111122,1111122,1111122' 
DISL,ioos:station:DISL:MBLA:1,2014-12-01T23:30:00Z,30.4367,-88.0117,14.2,4.92,144.7,-9999.0,'1111122,1111122,1111122' 
DISL,ioos:station:DISL:MBLA:1,2014-12-02T00:00:00Z,30.4367,-88.0117,14.2,4.11,129.8,-9999.0,'1111122,1111122,1111122' 
DISL,ioos:station:DISL:MBLA:1,2014-12-02T00:30:00Z,30.4367,-88.0117,14.2,3.14,124.6,-9999.0,'1111122,1111122,1111122' 
DISL,ioos:station:DISL:MBLA:1,2014-12-02T01:00:00Z,30.4367,-88.0117,14.2,3.37,125.9,-9999.0,'1111122,1111122,1111122' 
DISL,ioos:station:DISL:MBLA:1,2014-12-02T01:30:00Z,30.4367,-88.0117,14.2,2.66,122.8,-9999.0,'1111122,1111122,1111122' 
DISL,ioos:station:DISL:MBLA:1,2014-12-02T02:00:00Z,30.4367,-88.0117,14.2,1.92,116.3,-9999.0,'1111122,1111122,1111122' 
DISL,ioos:station:DISL:MBLA:1,2014-12-02T02:30:00Z,30.4367,-88.0117,14.2,1.34,108.0,-9999.0,'1111122,1111122,1111122' 
DISL,ioos:station:DISL:MBLA:1,2014-12-02T03:00:00Z,30.4367,-88.0117,14.2,1.78,114.0,-9999.0,'1111122,1111122,1111122' 
DISL,ioos:station:DISL:MBLA:1,2014-12-02T03:30:00Z,30.4367,-88.0117,14.2,1.68,124.7,-9999.0,'1111122,1111122,1111122' 
DISL,ioos:station:DISL:MBLA:1,2014-12-02T04:00:00Z,30.4367,-88.0117,14.2,0.75,92.3,-9999.0,'1111122,1111122,1111122' 
DISL,ioos:station:DISL:MBLA:1,2014-12-02T04:30:00Z,30.4367,-88.0117,14.2,0.49,63.18,-9999.0,'1111122,1111122,1111122' 
DISL,ioos:station:DISL:MBLA:1,2014-12-02T05:00:00Z,30.4367,-88.0117,14.2,1.27,340.1,-9999.0,'1111122,1111122,1111122' 
DISL,ioos:station:DISL:MBLA:1,2014-12-02T05:30:00Z,30.4367,-88.0117,14.2,1.53,357.9,-9999.0,'1111122,1111122,1111122' 
DISL,ioos:station:DISL:MBLA:1,2014-12-02T06:00:00Z,30.4367,-88.0117,14.2,1.45,73.61,-9999.0,'1111122,1111122,1111122' 
DISL,ioos:station:DISL:MBLA:1,2014-12-02T06:30:00Z,30.4367,-88.0117,14.2,1.82,87.7,-9999.0,'1111122,1111122,1111122' 
DISL,ioos:station:DISL:MBLA:1,2014-12-02T07:00:00Z,30.4367,-88.0117,14.2,2.11,78.82,-9999.0,'1111122,1111122,1111122' 
DISL,ioos:station:DISL:MBLA:1,2014-12-02T07:30:00Z,30.4367,-88.0117,14.2,2.69,103.4,-9999.0,'1111122,1111122,1111122' 
DISL,ioos:station:DISL:MBLA:1,2014-12-02T08:00:00Z,30.4367,-88.0117,14.2,2.86,4.679,-9999.0,'1111122,1111122,1111122' 
DISL,ioos:station:DISL:MBLA:1,2014-12-02T08:30:00Z,30.4367,-88.0117,14.2,3.54,26.98,-9999.0,'1111122,1111122,1111122' 
DISL,ioos:station:DISL:MBLA:1,2014-12-02T09:00:00Z,30.4367,-88.0117,14.2,3.72,64.38,-9999.0,'1111122,1111122,1111122' 
DISL,ioos:station:DISL:MBLA:1,2014-12-02T09:30:00Z,30.4367,-88.0117,14.2,2.49,55.32,-9999.0,'1111122,1111122,1111122' 
DISL,ioos:station:DISL:MBLA:1,2014-12-02T10:00:00Z,30.4367,-88.0117,14.2,2.93,16.22,-9999.0,'1111122,1111122,1111122' 
DISL,ioos:station:DISL:MBLA:1,2014-12-02T10:30:00Z,30.4367,-88.0117,14.2,4.97,2.842,-9999.0,'1111122,1111122,1111122' 
DISL,ioos:station:DISL:MBLA:1,2014-12-02T11:00:00Z,30.4367,-88.0117,14.2,4.69,6.308,-9999.0,'1111122,1111122,1111122' 
DISL,ioos:station:DISL:MBLA:1,2014-12-02T11:30:00Z,30.4367,-88.0117,14.2,4.65,19.99,-9999.0,'1111122,1111122,1111122' 
DISL,ioos:station:DISL:MBLA:1,2014-12-02T12:00:00Z,30.4367,-88.0117,14.2,4.76,7.945,-9999.0,'1111122,1111122,1111122' 
DISL,ioos:station:DISL:MBLA:1,2014-12-02T12:30:00Z,30.4367,-88.0117,14.2,5.41,2.451,-9999.0,'1111122,1111122,1111122' 
DISL,ioos:station:DISL:MBLA:1,2014-12-02T13:00:00Z,30.4367,-88.0117,14.2,5.98,8.5,-9999.0,'1111122,1111122,1111122' 
DISL,ioos:station:DISL:MBLA:1,2014-12-02T13:30:00Z,30.4367,-88.0117,14.2,6.42,357.9,-9999.0,'1111122,1111122,1111122' 
DISL,ioos:station:DISL:MBLA:1,2014-12-02T14:00:00Z,30.4367,-88.0117,14.2,6.75,1.623,-9999.0,'1111122,1111122,1111122' 
DISL,ioos:station:DISL:MBLA:1,2014-12-02T14:30:00Z,30.4367,-88.0117,14.2,7.07,7.032,-9999.0,'1111122,1111122,1111122' 
DISL,ioos:station:DISL:MBLA:1,2014-12-02T15:00:00Z,30.4367,-88.0117,14.2,6.96,8.47,-9999.0,'1111122,1111122,1111122' 
DISL,ioos:station:DISL:MBLA:1,2014-12-02T15:30:00Z,30.4367,-88.0117,14.2,6.53,0.84,-9999.0,'1111122,1111122,1111122' 
DISL,ioos:station:DISL:MBLA:1,2014-12-02T16:00:00Z,30.4367,-88.0117,14.2,5.94,3.702,-9999.0,'1111122,1111122,1111122' 
DISL,ioos:station:DISL:MBLA:1,2014-12-02T16:30:00Z,30.4367,-88.0117,14.2,5.19,355.2,-9999.0,'1111122,1111122,1111122' 
DISL,ioos:station:DISL:MBLA:1,2014-12-02T17:00:00Z,30.4367,-88.0117,14.2,4.42,357.2,-9999.0,'1111122,1111122,1111122' 
DISL,ioos:station:DISL:MBLA:1,2014-12-02T17:30:00Z,30.4367,-88.0117,14.2,4.98,342.0,-9999.0,'1111122,1111122,1111122' 
DISL,ioos:station:DISL:MBLA:1,2014-12-02T18:00:00Z,30.4367,-88.0117,14.2,4.43,334.5,-9999.0,'1111122,1111122,1111122' 
DISL,ioos:station:DISL:MBLA:1,2014-12-02T18:30:00Z,30.4367,-88.0117,14.2,4.83,333.8,-9999.0,'1111122,1111122,1111122' 
DISL,ioos:station:DISL:MBLA:1,2014-12-02T19:00:00Z,30.4367,-88.0117,14.2,3.59,344.6,-9999.0,'1111122,1111122,1111122' 
DISL,ioos:station:DISL:MBLA:1,2014-12-02T19:30:00Z,30.4367,-88.0117,14.2,2.15,323.8,-9999.0,'1111122,1111122,1111122' 
DISL,ioos:station:DISL:MBLA:1,2014-12-02T20:00:00Z,30.4367,-88.0117,14.2,4.21,155.5,-9999.0,'1111122,1111122,1111122' 
DISL,ioos:station:DISL:MBLA:1,2014-12-02T20:30:00Z,30.4367,-88.0117,14.2,3.16,167.2,-9999.0,'1111122,1111122,1111122' 
DISL,ioos:station:DISL:MBLA:1,2014-12-02T21:00:00Z,30.4367,-88.0117,14.2,2.42,176.1,-9999.0,'1111122,1111122,1111122' 
DISL,ioos:station:DISL:MBLA:1,2014-12-02T21:30:00Z,30.4367,-88.0117,14.2,3.92,157.6,-9999.0,'1111122,1111122,1111122' 
DISL,ioos:station:DISL:MBLA:1,2014-12-02T22:00:00Z,30.4367,-88.0117,14.2,3.51,159.0,-9999.0,'1111122,1111122,1111122' 
DISL,ioos:station:DISL:MBLA:1,2014-12-02T22:30:00Z,30.4367,-88.0117,14.2,4.02,159.1,-9999.0,'1111122,1111122,1111122' 
DISL,ioos:station:DISL:MBLA:1,2014-12-02T23:00:00Z,30.4367,-88.0117,14.2,4.22,149.9,-9999.0,'1111122,1111122,1111122' 
DISL,ioos:station:DISL:MBLA:1,2014-12-02T23:30:00Z,30.4367,-88.0117,14.2,3.74,130.2,-9999.0,'1111122,1111122,1111122' 
DISL,ioos:station:DISL:MBLA:1,2014-12-03T00:00:00Z,30.4367,-88.0117,14.2,2.0,110.7,-9999.0,'1111122,1111122,1111122' 
DISL,ioos:station:DISL:MBLA:1,2014-12-03T00:30:00Z,30.4367,-88.0117,14.2,2.09,96.4,-9999.0,'1111122,1111122,1111122' 
DISL,ioos:station:DISL:MBLA:1,2014-12-03T01:00:00Z,30.4367,-88.0117,14.2,1.51,97.7,-9999.0,'1111122,1111122,1111122' 
DISL,ioos:station:DISL:MBLA:1,2014-12-03T01:30:00Z,30.4367,-88.0117,14.2,1.14,76.22,-9999.0,'1111122,1111122,1111122' 
DISL,ioos:station:DISL:MBLA:1,2014-12-03T02:00:00Z,30.4367,-88.0117,14.2,0.77,44.28,-9999.0,'1111122,1111122,1111122' 
DISL,ioos:station:DISL:MBLA:1,2014-12-03T02:30:00Z,30.4367,-88.0117,14.2,0.72,46.79,-9999.0,'1111122,1111122,1111122' 
DISL,ioos:station:DISL:MBLA:1,2014-12-03T03:00:00Z,30.4367,-88.0117,14.2,0.91,39.92,-9999.0,'1111122,1111122,1111122' 
DISL,ioos:station:DISL:MBLA:1,2014-12-03T03:30:00Z,30.4367,-88.0117,14.2,1.14,39.92,-9999.0,'1111122,1111122,1111122' 
DISL,ioos:station:DISL:MBLA:1,2014-12-03T04:00:00Z,30.4367,-88.0117,14.2,2.2,38.79,-9999.0,'1111122,1111122,1111122' 
DISL,ioos:station:DISL:MBLA:1,2014-12-03T04:30:00Z,30.4367,-88.0117,14.2,2.58,57.47,-9999.0,'1111122,1111122,1111122' 
DISL,ioos:station:DISL:MBLA:1,2014-12-03T05:00:00Z,30.4367,-88.0117,14.2,2.58,50.58,-9999.0,'1111122,1111122,1111122' 
DISL,ioos:station:DISL:MBLA:1,2014-12-03T05:30:00Z,30.4367,-88.0117,14.2,1.9,57.9,-9999.0,'1111122,1111122,1111122' 
DISL,ioos:station:DISL:MBLA:1,2014-12-03T06:00:00Z,30.4367,-88.0117,14.2,1.98,47.82,-9999.0,'1111122,1111122,1111122' 
DISL,ioos:station:DISL:MBLA:1,2014-12-03T06:30:00Z,30.4367,-88.0117,14.2,3.45,16.19,-9999.0,'1111122,1111122,1111122' 
DISL,ioos:station:DISL:MBLA:1,2014-12-03T07:00:00Z,30.4367,-88.0117,14.2,3.72,18.6,-9999.0,'1111122,1111122,1111122' 
DISL,ioos:station:DISL:MBLA:1,2014-12-03T07:30:00Z,30.4367,-88.0117,14.2,4.73,12.76,-9999.0,'1111122,1111122,1111122' 
DISL,ioos:station:DISL:MBLA:1,2014-12-03T08:00:00Z,30.4367,-88.0117,14.2,4.72,12.79,-9999.0,'1111122,1111122,1111122' 
DISL,ioos:station:DISL:MBLA:1,2014-12-03T08:30:00Z,30.4367,-88.0117,14.2,4.4,12.78,-9999.0,'1111122,1111122,1111122' 
DISL,ioos:station:DISL:MBLA:1,2014-12-03T09:00:00Z,30.4367,-88.0117,14.2,4.49,23.32,-9999.0,'1111122,1111122,1111122' 
DISL,ioos:station:DISL:MBLA:1,2014-12-03T09:30:00Z,30.4367,-88.0117,14.2,4.3,33.11,-9999.0,'1111122,1111122,1111122' 
DISL,ioos:station:DISL:MBLA:1,2014-12-03T10:00:00Z,30.4367,-88.0117,14.2,4.5,19.09,-9999.0,'1111122,1111122,1111122' 
DISL,ioos:station:DISL:MBLA:1,2014-12-03T10:30:00Z,30.4367,-88.0117,14.2,4.24,42.23,-9999.0,'1111122,1111122,1111122' 
DISL,ioos:station:DISL:MBLA:1,2014-12-03T11:00:00Z,30.4367,-88.0117,14.2,3.65,19.27,-9999.0,'1111122,1111122,1111122' 
DISL,ioos:station:DISL:MBLA:1,2014-12-03T11:30:00Z,30.4367,-88.0117,14.2,4.09,20.9,-9999.0,'1111122,1111122,1111122' 
DISL,ioos:station:DISL:MBLA:1,2014-12-03T12:00:00Z,30.4367,-88.0117,14.2,4.13,21.55,-9999.0,'1111122,1111122,1111122' 
DISL,ioos:station:DISL:MBLA:1,2014-12-03T12:30:00Z,30.4367,-88.0117,14.2,4.36,8.38,-9999.0,'1111122,1111122,1111122' 
DISL,ioos:station:DISL:MBLA:1,2014-12-03T13:00:00Z,30.4367,-88.0117,14.2,5.54,17.68,-9999.0,'1111122,1111122,1111122' 
DISL,ioos:station:DISL:MBLA:1,2014-12-03T13:30:00Z,30.4367,-88.0117,14.2,4.71,17.98,-9999.0,'1111122,1111122,1111122' 
DISL,ioos:station:DISL:MBLA:1,2014-12-03T14:00:00Z,30.4367,-88.0117,14.2,4.61,10.9,-9999.0,'1111122,1111122,1111122' 
DISL,ioos:station:DISL:MBLA:1,2014-12-03T14:30:00Z,30.4367,-88.0117,14.2,4.11,7.113,-9999.0,'1111122,1111122,1111122' 
DISL,ioos:station:DISL:MBLA:1,2014-12-03T15:00:00Z,30.4367,-88.0117,14.2,3.46,0.108,-9999.0,'1111122,1111122,1111122' 
DISL,ioos:station:DISL:MBLA:1,2014-12-03T15:30:00Z,30.4367,-88.0117,14.2,3.27,353.9,-9999.0,'1111122,1111122,1111122' 
DISL,ioos:station:DISL:MBLA:1,2014-12-03T16:00:00Z,30.4367,-88.0117,14.2,3.47,356.2,-9999.0,'1111122,1111122,1111122' 
DISL,ioos:station:DISL:MBLA:1,2014-12-03T16:30:00Z,30.4367,-88.0117,14.2,4.07,353.7,-9999.0,'1111122,1111122,1111122' 
DISL,ioos:station:DISL:MBLA:1,2014-12-03T17:00:00Z,30.4367,-88.0117,14.2,4.32,359.5,-9999.0,'1111122,1111122,1111122' 
DISL,ioos:station:DISL:MBLA:1,2014-12-03T17:30:00Z,30.4367,-88.0117,14.2,3.81,4.269,-9999.0,'1111122,1111122,1111122' 
DISL,ioos:station:DISL:MBLA:1,2014-12-03T18:00:00Z,30.4367,-88.0117,14.2,2.34,0.556,-9999.0,'1111122,1111122,1111122' 
DISL,ioos:station:DISL:MBLA:1,2014-12-03T18:30:00Z,30.4367,-88.0117,14.2,3.13,347.1,-9999.0,'1111122,1111122,1111122' 
DISL,ioos:station:DISL:MBLA:1,2014-12-03T19:00:00Z,30.4367,-88.0117,14.2,1.23,226.6,-9999.0,'1111122,1111122,1111122' 
DISL,ioos:station:DISL:MBLA:1,2014-12-03T19:30:00Z,30.4367,-88.0117,14.2,1.13,287.1,-9999.0,'1111122,1111122,1111122' 
DISL,ioos:station:DISL:MBLA:1,2014-12-03T20:00:00Z,30.4367,-88.0117,14.2,0.4,228.9,-9999.0,'1111122,1111122,1111122' 
DISL,ioos:station:DISL:MBLA:1,2014-12-03T20:30:00Z,30.4367,-88.0117,14.2,1.5,273.8,-9999.0,'1111122,1111122,1111122' 
DISL,ioos:station:DISL:MBLA:1,2014-12-03T21:00:00Z,30.4367,-88.0117,14.2,2.28,281.5,-9999.0,'1111122,1111122,1111122' 
DISL,ioos:station:DISL:MBLA:1,2014-12-03T21:30:00Z,30.4367,-88.0117,14.2,1.89,221.7,-9999.0,'1111122,1111122,1111122' 
DISL,ioos:station:DISL:MBLA:1,2014-12-03T22:00:00Z,30.4367,-88.0117,14.2,1.57,188.3,-9999.0,'1111122,1111122,1111122' 
DISL,ioos:station:DISL:MBLA:1,2014-12-03T22:30:00Z,30.4367,-88.0117,14.2,2.87,137.5,-9999.0,'1111122,1111122,1111122' 
DISL,ioos:station:DISL:MBLA:1,2014-12-03T23:00:00Z,30.4367,-88.0117,14.2,3.18,146.1,-9999.0,'1111122,1111122,1111122' 
DISL,ioos:station:DISL:MBLA:1,2014-12-03T23:30:00Z,30.4367,-88.0117,14.2,1.74,140.8,-9999.0,'1111122,1111122,1111122' 
DISL,ioos:station:DISL:MBLA:1,2014-12-04T00:00:00Z,30.4367,-88.0117,14.2,1.18,123.0,-9999.0,'1111122,1111122,1111122' 
DISL,ioos:station:DISL:MBLA:1,2014-12-04T00:30:00Z,30.4367,-88.0117,14.2,3.53,121.6,-9999.0,'1111122,1111122,1111122' 
DISL,ioos:station:DISL:MBLA:1,2014-12-04T01:00:00Z,30.4367,-88.0117,14.2,2.92,122.1,-9999.0,'1111122,1111122,1111122' 
DISL,ioos:station:DISL:MBLA:1,2014-12-04T01:30:00Z,30.4367,-88.0117,14.2,0.0,0.0,-9999.0,'1114422,1114422,1111122' 
DISL,ioos:station:DISL:MBLA:1,2014-12-04T02:00:00Z,30.4367,-88.0117,14.2,1.43,50.69,-9999.0,'1111122,1111122,1111122' 
DISL,ioos:station:DISL:MBLA:1,2014-12-04T02:30:00Z,30.4367,-88.0117,14.2,2.23,20.93,-9999.0,'1111122,1111122,1111122' 
DISL,ioos:station:DISL:MBLA:1,2014-12-04T03:00:00Z,30.4367,-88.0117,14.2,2.28,358.5,-9999.0,'1111122,1111122,1111122' 
DISL,ioos:station:DISL:MBLA:1,2014-12-04T03:30:00Z,30.4367,-88.0117,14.2,2.48,24.63,-9999.0,'1111122,1111122,1111122' 
DISL,ioos:station:DISL:MBLA:1,2014-12-04T04:00:00Z,30.4367,-88.0117,14.2,2.44,21.11,-9999.0,'1111122,1111122,1111122' 
DISL,ioos:station:DISL:MBLA:1,2014-12-04T04:30:00Z,30.4367,-88.0117,14.2,2.69,28.29,-9999.0,'1111122,1111122,1111122' 
DISL,ioos:station:DISL:MBLA:1,2014-12-04T05:00:00Z,30.4367,-88.0117,14.2,3.1,49.43,-9999.0,'1111122,1111122,1111122' 
DISL,ioos:station:DISL:MBLA:1,2014-12-04T05:30:00Z,30.4367,-88.0117,14.2,2.82,39.8,-9999.0,'1111122,1111122,1111122' 
DISL,ioos:station:DISL:MBLA:1,2014-12-04T06:00:00Z,30.4367,-88.0117,14.2,3.07,73.16,-9999.0,'1111122,1111122,1111122' 
DISL,ioos:station:DISL:MBLA:1,2014-12-04T06:30:00Z,30.4367,-88.0117,14.2,2.98,70.03,-9999.0,'1111122,1111122,1111122' 
DISL,ioos:station:DISL:MBLA:1,2014-12-04T07:00:00Z,30.4367,-88.0117,14.2,2.57,47.46,-9999.0,'1111122,1111122,1111122' 
DISL,ioos:station:DISL:MBLA:1,2014-12-04T07:30:00Z,30.4367,-88.0117,14.2,2.52,33.25,-9999.0,'1111122,1111122,1111122' 
DISL,ioos:station:DISL:MBLA:1,2014-12-04T08:00:00Z,30.4367,-88.0117,14.2,4.28,8.74,-9999.0,'1111122,1111122,1111122' 
DISL,ioos:station:DISL:MBLA:1,2014-12-04T08:30:00Z,30.4367,-88.0117,14.2,4.43,0.058,-9999.0,'1111122,1111122,1111122' 
DISL,ioos:station:DISL:MBLA:1,2014-12-04T09:00:00Z,30.4367,-88.0117,14.2,4.0,354.3,-9999.0,'1111122,1111122,1111122' 
DISL,ioos:station:DISL:MBLA:1,2014-12-04T09:30:00Z,30.4367,-88.0117,14.2,4.57,1.11,-9999.0,'1111122,1111122,1111122' 
DISL,ioos:station:DISL:MBLA:1,2014-12-04T10:00:00Z,30.4367,-88.0117,14.2,4.44,0.92,-9999.0,'1111122,1111122,1111122' 
DISL,ioos:station:DISL:MBLA:1,2014-12-04T10:30:00Z,30.4367,-88.0117,14.2,3.58,15.27,-9999.0,'1111122,1111122,1111122' 
DISL,ioos:station:DISL:MBLA:1,2014-12-04T11:00:00Z,30.4367,-88.0117,14.2,3.09,23.28,-9999.0,'1111122,1111122,1111122' 
DISL,ioos:station:DISL:MBLA:1,2014-12-04T11:30:00Z,30.4367,-88.0117,14.2,2.39,36.06,-9999.0,'1111122,1111122,1111122' 
DISL,ioos:station:DISL:MBLA:1,2014-12-04T12:00:00Z,30.4367,-88.0117,14.2,2.74,65.78,-9999.0,'1111122,1111122,1111122' 
DISL,ioos:station:DISL:MBLA:1,2014-12-04T12:30:00Z,30.4367,-88.0117,14.2,3.85,70.15,-9999.0,'1111122,1111122,1111122' 
DISL,ioos:station:DISL:MBLA:1,2014-12-04T13:00:00Z,30.4367,-88.0117,14.2,3.91,60.24,-9999.0,'1111122,1111122,1111122' 
DISL,ioos:station:DISL:MBLA:1,2014-12-04T13:30:00Z,30.4367,-88.0117,14.2,3.28,44.65,-9999.0,'1111122,1111122,1111122' 
DISL,ioos:station:DISL:MBLA:1,2014-12-04T14:00:00Z,30.4367,-88.0117,14.2,2.27,52.0,-9999.0,'1111122,1111122,1111122' 
DISL,ioos:station:DISL:MBLA:1,2014-12-04T14:30:00Z,30.4367,-88.0117,14.2,2.7,7.041,-9999.0,'1111122,1111122,1111122' 
DISL,ioos:station:DISL:MBLA:1,2014-12-04T15:00:00Z,30.4367,-88.0117,14.2,2.34,23.08,-9999.0,'1111122,1111122,1111122' 
DISL,ioos:station:DISL:MBLA:1,2014-12-04T15:30:00Z,30.4367,-88.0117,14.2,2.14,23.49,-9999.0,'1111122,1111122,1111122' 
DISL,ioos:station:DISL:MBLA:1,2014-12-04T16:00:00Z,30.4367,-88.0117,14.2,1.44,10.0,-9999.0,'1111122,1111122,1111122' 
DISL,ioos:station:DISL:MBLA:1,2014-12-04T16:30:00Z,30.4367,-88.0117,14.2,1.48,342.7,-9999.0,'1111122,1111122,1111122' 
DISL,ioos:station:DISL:MBLA:1,2014-12-04T17:00:00Z,30.4367,-88.0117,14.2,0.37,331.7,-9999.0,'1111122,1111122,1111122' 
DISL,ioos:station:DISL:MBLA:1,2014-12-04T17:30:00Z,30.4367,-88.0117,14.2,0.7,159.4,-9999.0,'1111122,1111122,1111122' 
DISL,ioos:station:DISL:MBLA:1,2014-12-04T18:00:00Z,30.4367,-88.0117,14.2,5.22,139.0,-9999.0,'1111122,1111122,1111122' 
DISL,ioos:station:DISL:MBLA:1,2014-12-04T18:30:00Z,30.4367,-88.0117,14.2,5.29,142.9,-9999.0,'1111122,1111122,1111122' 
DISL,ioos:station:DISL:MBLA:1,2014-12-04T19:00:00Z,30.4367,-88.0117,14.2,4.87,142.6,-9999.0,'1111122,1111122,1111122' 
DISL,ioos:station:DISL:MBLA:1,2014-12-04T19:30:00Z,30.4367,-88.0117,14.2,4.39,138.9,-9999.0,'1111122,1111122,1111122' 
DISL,ioos:station:DISL:MBLA:1,2014-12-04T20:00:00Z,30.4367,-88.0117,14.2,4.44,143.5,-9999.0,'1111122,1111122,1111122' 
DISL,ioos:station:DISL:MBLA:1,2014-12-04T20:30:00Z,30.4367,-88.0117,14.2,4.68,145.4,-9999.0,'1111122,1111122,1111122' 
DISL,ioos:station:DISL:MBLA:1,2014-12-04T21:00:00Z,30.4367,-88.0117,14.2,5.44,139.7,-9999.0,'1111122,1111122,1111122' 
DISL,ioos:station:DISL:MBLA:1,2014-12-04T21:30:00Z,30.4367,-88.0117,14.2,5.64,146.7,-9999.0,'1111122,1111122,1111122' 
DISL,ioos:station:DISL:MBLA:1,2014-12-04T22:00:00Z,30.4367,-88.0117,14.2,6.15,146.1,-9999.0,'1111122,1111122,1111122' 
DISL,ioos:station:DISL:MBLA:1,2014-12-04T22:30:00Z,30.4367,-88.0117,14.2,5.42,134.2,-9999.0,'1111122,1111122,1111122' 
DISL,ioos:station:DISL:MBLA:1,2014-12-04T23:00:00Z,30.4367,-88.0117,14.2,6.34,127.6,-9999.0,'1111122,1111122,1111122' 
DISL,ioos:station:DISL:MBLA:1,2014-12-04T23:30:00Z,30.4367,-88.0117,14.2,5.2,118.2,-9999.0,'1111122,1111122,1111122' 
DISL,ioos:station:DISL:MBLA:1,2014-12-05T00:00:00Z,30.4367,-88.0117,14.2,5.23,112.2,-9999.0,'1111122,1111122,1111122' 
DISL,ioos:station:DISL:MBLA:1,2014-12-05T00:30:00Z,30.4367,-88.0117,14.2,4.47,105.5,-9999.0,'1111122,1111122,1111122' 
DISL,ioos:station:DISL:MBLA:1,2014-12-05T01:00:00Z,30.4367,-88.0117,14.2,5.01,109.7,-9999.0,'1111122,1111122,1111122' 
DISL,ioos:station:DISL:MBLA:1,2014-12-05T01:30:00Z,30.4367,-88.0117,14.2,4.19,103.3,-9999.0,'1111122,1111122,1111122' 
DISL,ioos:station:DISL:MBLA:1,2014-12-05T02:00:00Z,30.4367,-88.0117,14.2,3.14,94.4,-9999.0,'1111122,1111122,1111122' 
DISL,ioos:station:DISL:MBLA:1,2014-12-05T02:30:00Z,30.4367,-88.0117,14.2,3.81,94.6,-9999.0,'1111122,1111122,1111122' 
DISL,ioos:station:DISL:MBLA:1,2014-12-05T03:00:00Z,30.4367,-88.0117,14.2,4.35,96.1,-9999.0,'1111122,1111122,1111122' 
DISL,ioos:station:DISL:MBLA:1,2014-12-05T03:30:00Z,30.4367,-88.0117,14.2,4.57,101.4,-9999.0,'1111122,1111122,1111122' 
DISL,ioos:station:DISL:MBLA:1,2014-12-05T04:00:00Z,30.4367,-88.0117,14.2,4.29,102.7,-9999.0,'1111122,1111122,1111122' 